Location: Unspecified
(50.7693°N, 0.0000°E)
Time: 10:43:52
(UTC+00:00)

Transit 4A - Pass Details

Date: 02 July 2019
Orbit: 866 x 978 km, 66.8° (Epoch: 16 October)

Event Time Altitude Azimuth Distance (km) Brightness Sun altitude
Rises 05:15:46 0° 185° (S) 3,613 10.7 10.5°
Reaches altitude 10° 05:18:27 10° 177° (S) 2,686 10.1 10.9°
Maximum altitude 05:24:08 37° 113° (ESE) 1,474 9.7 11.7°
Drops below altitude 10° 05:29:54 10° 49° (NE) 2,736 12.0 12.5°
Sets 05:32:39 0° 41° (NE) 3,689 12.2 12.9°
